Radford, VA

3:33 PM EST on February 24, 2017 (GMT -0500)
New River Valley

Weather History for KPSK - May, 2014

Change the Weather History Date:

Friday, May 9, 2014

  Actual Average (KBCB) Record (KBCB)
Temperature  
Mean Temperature 66 °F -  
Max Temperature 80 °F 69 °F 85 °F (1964)
Min Temperature 52 °F 42 °F 28 °F (1983)
Cooling Degree Days 1    
Growing Degree Days 16 (Base 50)    
Moisture  
Dew Point 55 °F    
Average Humidity 74    
Maximum Humidity 96    
Minimum Humidity 39    
Precipitation  
Precipitation 0.03 in - - ()
Sea Level Pressure  
Sea Level Pressure 30.15 in    
Wind  
Wind Speed 2 mph (SSW)    
Max Wind Speed 16 mph    
Max Gust Speed 22 mph    
Visibility 10 miles    
Events Rain    
Averages and records for this station are not official NWS values.
T = Trace of Precipitation, MM = Missing Value Source: NWS Daily Summary

Daily Weather History Graph

Daily Weather History Graph

Search for Another Location

Airport or City:

Trip Planner

Search our weather history database for the weather conditions in past years. The results will help you decide how hot, cold, wet, or windy it might be!

Date:

Astronomy

May. 09, 2014 Rise Set
Actual Time 6:19 AM EDT 8:19 PM EDT
Civil Twilight 5:51 AM EDT 8:47 PM EDT
Nautical Twilight 5:16 AM EDT 9:22 PM EDT
Astronomical Twilight 4:39 AM EDT 10:00 PM EDT
Moon 3:21 PM EDT (5/9) 3:13 AM EDT (5/9)
Length of Visible Light 14h 56m
Length of Day
13h 59m
Waxing Gibbous, 73% of the Moon is Illuminated
May 9
Waxing Gibbous
May 14
Full
May 21
Last Quarter
May 28
New
Jun 5
First Quarter

Hourly Weather History & Observations

Time (EDT) Temp. Heat Index Dew Point Humidity Pressure Visibility Wind Dir Wind Speed Gust Speed Precip Events Conditions
12:15 AM 58.5 °F - 45.9 °F 63% 30.19 in 10.0 mi Calm Calm - N/A   Clear
12:35 AM 57.9 °F - 45.9 °F 64% 30.19 in 10.0 mi Calm Calm - N/A   Clear
12:55 AM 56.7 °F - 46.8 °F 69% 30.19 in 10.0 mi Calm Calm - N/A   Clear
1:15 AM 60.1 °F - 45.3 °F 58% 30.19 in 10.0 mi Calm Calm - N/A   Clear
1:35 AM 55.8 °F - 46.2 °F 70% 30.18 in 10.0 mi Calm Calm - N/A   Clear
1:55 AM 57.6 °F - 46.0 °F 65% 30.18 in 10.0 mi Calm Calm - N/A   Clear
2:15 AM 59.2 °F - 47.3 °F 65% 30.18 in 10.0 mi SSW 3.5 mph - N/A   Clear
2:35 AM 56.1 °F - 46.6 °F 70% 30.17 in 10.0 mi Calm Calm - N/A   Clear
2:55 AM 56.5 °F - 46.4 °F 69% 30.17 in 10.0 mi Calm Calm - N/A   Clear
3:15 AM 55.4 °F - 46.4 °F 72% 30.17 in 10.0 mi Calm Calm - N/A   Clear
3:35 AM 55.9 °F - 45.7 °F 68% 30.17 in 10.0 mi Calm Calm - N/A   Clear
3:55 AM 55.2 °F - 45.9 °F 71% 30.17 in 10.0 mi WNW 3.5 mph - N/A   Clear
4:15 AM 53.8 °F - 46.8 °F 77% 30.17 in 10.0 mi Calm Calm - N/A   Clear
4:35 AM 54.5 °F - 46.8 °F 75% 30.17 in 10.0 mi Calm Calm - N/A   Clear
4:55 AM 54.7 °F - 46.9 °F 75% 30.17 in 10.0 mi Calm Calm - N/A   Clear
5:15 AM 54.3 °F - 46.4 °F 75% 30.17 in 10.0 mi Calm Calm - N/A   Clear
5:35 AM 54.1 °F - 47.1 °F 77% 30.17 in 10.0 mi Calm Calm - N/A   Clear
5:55 AM 53.2 °F - 46.8 °F 79% 30.18 in 10.0 mi Calm Calm - N/A   Clear
6:15 AM 52.7 °F - 46.8 °F 80% 30.18 in 10.0 mi Calm Calm - N/A   Clear
6:35 AM 52.3 °F - 47.1 °F 82% 30.19 in 10.0 mi Calm Calm - N/A   Clear
6:55 AM 52.3 °F - 47.3 °F 83% 30.20 in 10.0 mi Calm Calm - N/A   Clear
7:15 AM 53.2 °F - 47.8 °F 82% 30.20 in 10.0 mi Calm Calm - N/A   Clear
7:35 AM 55.4 °F - 48.9 °F 79% 30.20 in 10.0 mi Calm Calm - N/A   Clear
7:55 AM 57.2 °F - 50.2 °F 77% 30.20 in 10.0 mi Calm Calm - N/A   Clear
8:15 AM 58.6 °F - 50.9 °F 75% 30.20 in 10.0 mi Calm Calm - N/A   Clear
8:35 AM 59.7 °F - 51.8 °F 75% 30.21 in 10.0 mi Calm Calm - N/A   Clear
8:55 AM 60.6 °F - 52.7 °F 75% 30.21 in 10.0 mi Calm Calm - N/A   Clear
9:15 AM 63.3 °F - 53.2 °F 70% 30.21 in 10.0 mi Calm Calm - N/A   Clear
9:35 AM 64.9 °F - 54.7 °F 69% 30.21 in 10.0 mi Calm Calm - N/A   Clear
9:55 AM 66.4 °F - 55.6 °F 68% 30.20 in 10.0 mi Calm Calm - N/A   Clear
10:15 AM 69.8 °F - 55.9 °F 61% 30.20 in 10.0 mi Calm Calm - N/A   Clear
10:35 AM 72.1 °F - 55.8 °F 56% 30.19 in 10.0 mi Calm Calm - N/A   Clear
10:55 AM 74.8 °F - 54.9 °F 50% 30.19 in 10.0 mi South 6.9 mph - N/A   Clear
11:15 AM 77.9 °F - 54.5 °F 44% 30.19 in 10.0 mi SSW 8.1 mph - N/A   Clear
11:35 AM 76.8 °F - 51.4 °F 41% 30.18 in 10.0 mi SSW 10.4 mph 16.1 mph N/A   Clear
12:15 PM 78.3 °F - 56.3 °F 47% 30.16 in 10.0 mi WSW 8.1 mph - N/A   Scattered Clouds
12:35 PM 77.9 °F - 55.2 °F 45% 30.15 in 10.0 mi SSW 9.2 mph - N/A   Scattered Clouds
12:55 PM 79.0 °F - 53.8 °F 42% 30.14 in 10.0 mi SSW 12.7 mph 18.4 mph N/A   Mostly Cloudy
1:15 PM 80.2 °F - 52.9 °F 39% 30.13 in 10.0 mi SSW 11.5 mph 18.4 mph N/A   Scattered Clouds
1:35 PM 78.6 °F - 53.8 °F 42% 30.12 in 10.0 mi SSW 9.2 mph - N/A   Clear
1:55 PM 80.6 °F 80.4 °F 54.7 °F 41% 30.12 in 10.0 mi SSW 13.8 mph - N/A   Clear
2:15 PM 80.2 °F 80.3 °F 55.0 °F 42% 30.10 in 10.0 mi South 10.4 mph 16.1 mph N/A   Clear
2:35 PM 79.5 °F - 54.0 °F 41% 30.09 in 10.0 mi South 12.7 mph 18.4 mph N/A   Clear
2:55 PM 78.1 °F - 54.5 °F 44% 30.10 in 10.0 mi SW 15.0 mph - N/A Rain Light Rain
3:15 PM 66.9 °F - 61.0 °F 81% 30.11 in 5.0 mi SSW 9.2 mph - N/A Rain Light Rain
3:35 PM 68.0 °F - 62.4 °F 82% 30.08 in 10.0 mi SW 3.5 mph - 0.01 in   Overcast
3:55 PM 70.3 °F - 62.8 °F 77% 30.08 in 10.0 mi NW 6.9 mph - 0.01 in   Scattered Clouds
4:15 PM 68.5 °F - 63.3 °F 83% 30.10 in 7.0 mi SSW 16.1 mph 21.9 mph 0.01 in Rain Rain
4:35 PM 65.3 °F - 61.2 °F 86% 30.09 in 10.0 mi SW 4.6 mph - 0.01 in Rain Light Rain
4:55 PM 66.2 °F - 62.8 °F 89% 30.09 in 10.0 mi SSW 4.6 mph - 0.01 in   Mostly Cloudy
5:15 PM 66.2 °F - 62.6 °F 88% 30.08 in 10.0 mi SW 4.6 mph - N/A   Mostly Cloudy
5:35 PM 66.2 °F - 62.8 °F 89% 30.10 in 10.0 mi SSW 5.8 mph - N/A Rain Rain
5:55 PM 66.4 °F - 62.2 °F 86% 30.10 in 10.0 mi SSW 8.1 mph - 0.01 in   Overcast
6:15 PM 66.2 °F - 62.4 °F 88% 30.10 in 10.0 mi SW 5.8 mph - N/A Rain Light Rain
6:35 PM 65.7 °F - 63.0 °F 91% 30.09 in 10.0 mi SSW 3.5 mph - N/A Rain Light Rain
6:55 PM 65.5 °F - 63.0 °F 92% 30.10 in 10.0 mi South 4.6 mph - N/A   Light Drizzle
7:15 PM 65.3 °F - 63.5 °F 94% 30.10 in 10.0 mi South 6.9 mph - N/A   Overcast
7:35 PM 65.3 °F - 63.1 °F 93% 30.09 in 10.0 mi South 6.9 mph - N/A Rain Light Rain
7:55 PM 65.1 °F - 63.1 °F 93% 30.09 in 10.0 mi South 4.6 mph - N/A Rain Rain
8:15 PM 64.8 °F - 63.0 °F 94% 30.10 in 10.0 mi SSW 4.6 mph - N/A   Mostly Cloudy
8:35 PM 64.0 °F - 62.6 °F 95% 30.10 in 10.0 mi Calm Calm - N/A   Overcast
8:55 PM 64.0 °F - 62.8 °F 96% 30.10 in 10.0 mi Calm Calm - N/A   Overcast
9:15 PM 63.9 °F - 62.6 °F 96% 30.11 in 10.0 mi WSW 4.6 mph - N/A   Mostly Cloudy
9:35 PM 63.5 °F - 61.9 °F 94% 30.11 in 10.0 mi SW 3.5 mph - N/A   Clear
9:55 PM 63.5 °F - 61.2 °F 92% 30.11 in 10.0 mi Calm Calm - N/A   Clear
10:15 PM 63.7 °F - 60.8 °F 90% 30.10 in 10.0 mi Calm Calm - N/A   Clear
10:35 PM 63.1 °F - 60.8 °F 92% 30.11 in 10.0 mi Calm Calm - N/A   Clear
10:55 PM 63.1 °F - 60.6 °F 91% 30.11 in 10.0 mi Calm Calm - N/A   Clear
11:15 PM 61.7 °F - 60.1 °F 94% 30.12 in 10.0 mi West 3.5 mph - N/A   Clear
11:35 PM 62.1 °F - 61.0 °F 96% 30.12 in 10.0 mi WSW 5.8 mph - N/A   Mostly Cloudy
11:55 PM 63.1 °F - 60.8 °F 92% 30.12 in 10.0 mi SW 6.9 mph - N/A   Overcast